TimeEST,TemperatureF,Dew PointF,Humidity,Sea Level PressureIn,VisibilityMPH,Wind Direction,Wind SpeedMPH,Gust SpeedMPH,PrecipitationIn,Events,Conditions,WindDirDegrees,DateUTC
12:53 AM,28.0,15.1,58,30.39,10.0,Variable,3.5,-,N/A,,Overcast,0,2013-02-08 05:53:00
1:53 AM,28.0,10.0,47,30.37,10.0,NE,5.8,-,N/A,,Overcast,50,2013-02-08 06:53:00
2:53 AM,28.0,12.9,53,30.35,10.0,ENE,4.6,-,N/A,,Overcast,60,2013-02-08 07:53:00
3:42 AM,28.4,15.8,59,30.32,10.0,ENE,6.9,-,N/A,,Overcast,70,2013-02-08 08:42:00
3:53 AM,28.0,16.0,61,30.32,10.0,NE,5.8,-,N/A,,Overcast,50,2013-02-08 08:53:00
4:53 AM,28.0,18.0,66,30.29,10.0,NNE,4.6,-,N/A,,Overcast,20,2013-02-08 09:53:00
5:53 AM,28.0,19.0,69,30.27,10.0,North,5.8,-,N/A,,Overcast,10,2013-02-08 10:53:00
6:53 AM,28.9,19.9,69,30.24,10.0,North,6.9,-,N/A,,Overcast,10,2013-02-08 11:53:00
7:53 AM,28.9,21.9,75,30.22,10.0,NNE,6.9,-,N/A,,Overcast,30,2013-02-08 12:53:00
8:14 AM,30.2,23.0,75,30.20,1.8,NNE,6.9,-,0.00,Snow,Light Snow,20,2013-02-08 13:14:00
8:30 AM,28.4,24.8,86,30.20,0.8,North,5.8,-,0.00,Snow,Light Snow,360,2013-02-08 13:30:00
8:53 AM,30.0,26.1,85,30.19,1.0,NNE,5.8,-,0.01,Snow,Light Snow,30,2013-02-08 13:53:00
9:24 AM,30.2,26.6,86,30.17,0.8,NNE,6.9,-,0.00,Snow,Light Snow,30,2013-02-08 14:24:00
9:51 AM,30.2,26.6,86,30.16,1.0,North,5.8,-,0.01,Snow,Light Snow,10,2013-02-08 14:51:00
9:53 AM,30.9,27.0,85,30.16,1.0,NE,6.9,-,0.02,Snow,Light Snow,40,2013-02-08 14:53:00
10:53 AM,30.9,27.0,85,30.12,1.0,NNE,6.9,18.4,0.01,Snow,Light Snow,30,2013-02-08 15:53:00
11:06 AM,30.2,26.6,86,30.10,0.8,NE,10.4,-,0.01,Snow,Light Snow,40,2013-02-08 16:06:00
11:36 AM,30.2,28.4,93,30.06,0.8,NNE,10.4,16.1,0.03,Snow,Light Snow,20,2013-02-08 16:36:00
11:53 AM,30.9,28.0,89,30.05,0.8,NNE,6.9,-,0.05,Snow,Light Snow,30,2013-02-08 16:53:00
12:28 PM,30.2,28.4,93,30.01,0.8,North,8.1,-,0.03,Snow,Light Snow,10,2013-02-08 17:28:00
12:49 PM,30.2,28.4,93,29.99,0.5,NNE,8.1,-,0.05,Fog-Snow,Snow,30,2013-02-08 17:49:00
12:53 PM,30.9,28.0,89,30.00,0.5,NNE,5.8,-,0.05,Fog-Snow,Snow,20,2013-02-08 17:53:00
1:23 PM,30.2,28.4,93,29.95,0.2,NNE,9.2,-,0.03,Fog-Snow,Snow,20,2013-02-08 18:23:00
1:30 PM,30.2,28.4,93,29.95,0.5,North,8.1,-,0.04,Fog-Snow,Snow,10,2013-02-08 18:30:00
1:53 PM,30.9,28.9,92,29.93,0.8,North,9.2,17.3,0.05,Snow,Light Snow,10,2013-02-08 18:53:00
2:21 PM,32.0,28.4,87,29.90,0.5,NNE,9.2,20.7,0.03,Fog-Snow,Snow,30,2013-02-08 19:21:00
2:28 PM,32.0,28.4,87,29.89,0.2,NNE,10.4,20.7,0.04,Fog-Snow,Snow,20,2013-02-08 19:28:00
2:43 PM,32.0,28.4,87,29.87,0.2,North,8.1,-,0.05,Fog-Snow,Heavy Snow,10,2013-02-08 19:43:00
2:53 PM,32.0,30.0,92,29.87,0.2,NNE,12.7,20.7,0.07,Fog-Snow,Heavy Snow,20,2013-02-08 19:53:00
3:10 PM,32.0,30.2,93,29.85,0.5,NNE,11.5,18.4,0.02,Fog-Snow,Snow,20,2013-02-08 20:10:00
3:53 PM,32.0,30.0,92,29.81,0.5,NNE,15.0,21.9,0.06,Fog-Snow,Snow,30,2013-02-08 20:53:00
4:33 PM,30.2,28.4,93,29.77,0.2,North,12.7,23.0,0.02,Fog-Snow,Snow,10,2013-02-08 21:33:00
4:53 PM,30.0,27.0,88,29.77,0.2,North,12.7,23.0,0.04,Fog-Snow,Heavy Snow,10,2013-02-08 21:53:00
5:01 PM,30.2,26.6,86,29.76,0.2,NNE,13.8,21.9,0.00,Fog-Snow,Heavy Snow,20,2013-02-08 22:01:00
5:23 PM,28.4,26.6,93,29.75,0.5,North,12.7,20.7,0.02,Fog-Snow,Snow,10,2013-02-08 22:23:00
5:53 PM,28.0,26.1,92,29.75,0.5,North,12.7,26.5,0.05,Fog-Snow,Snow,10,2013-02-08 22:53:00
6:07 PM,28.4,26.6,93,29.73,0.5,North,16.1,23.0,0.02,Fog-Snow,Snow,10,2013-02-08 23:07:00
6:37 PM,28.4,24.8,86,29.70,0.2,North,20.7,33.4,0.04,Fog-Snow,Heavy Snow,10,2013-02-08 23:37:00
6:53 PM,27.0,25.0,92,29.69,0.2,North,17.3,28.8,0.06,Fog-Snow,Heavy Snow,10,2013-02-08 23:53:00
7:20 PM,26.6,24.8,93,29.67,0.5,North,19.6,32.2,0.03,Fog-Snow,Snow,10,2013-02-09 00:20:00
7:32 PM,26.6,24.8,93,29.65,0.2,North,21.9,39.1,0.04,Fog-Snow,Heavy Snow,10,2013-02-09 00:32:00
7:53 PM,26.1,24.1,92,29.64,0.2,North,16.1,31.1,0.08,Fog,Light Freezing Fog,10,2013-02-09 00:53:00
8:53 PM,26.1,24.1,92,29.61,0.2,North,17.3,31.1,0.13,Fog,Light Freezing Fog,360,2013-02-09 01:53:00
9:53 PM,24.1,21.0,88,29.60,0.2,North,-9999.0,-,0.21,Fog,Light Freezing Fog,0,2013-02-09 02:53:00
10:53 PM,21.9,19.9,92,29.62,0.2,North,-9999.0,-,0.16,Fog,Light Freezing Fog,0,2013-02-09 03:53:00
11:30 PM,21.2,19.4,93,29.65,0.5,North,-9999.0,-,0.08,Fog,Light Freezing Fog,0,2013-02-09 04:30:00
11:53 PM,21.9,19.0,89,29.67,0.5,North,-9999.0,-,0.10,Fog,Light Freezing Fog,0,2013-02-09 04:53:00